Location: Guadanolo
(41.9167°N, 12.9333°E)
Time: 02:34:02
(UTC+00:00)

Spot 2 Rocket - Pass Details

Date: 16 September 2019
Orbit: 758 x 772 km, 98.6° (Epoch: 22 October)

Event Time Altitude Azimuth Distance (km) Brightness Sun altitude
Exits shadow 19:57:19 57° 359° (N) 898 3.9 -28.9°
Drops below altitude 10° 20:01:19 10° 348° (NNW) 2,297 6.5 -29.5°
Sets 20:03:37 0° 348° (NNW) 3,226 7.4 -29.8°
